M I D A S
Marine Information and Data Acquisition System
Tripno 1428 of the Zeeleeuw from 2008-02-25 07:37:06 to 2008-02-25 14:37:06
Back to CruiseResearch ActivitiesStationsMapUnderway DataData graphs

EquipmentUnitsComment
TimeDGPSUTC
LatitudeDGPSDM.mWGS84
LongitudeDGPSDM.mWGS84
TemperatureSBE03/SBE38deg celciusITS90
ConductivitySBE21S/mITS90
SalinitySBE21 Practical Salinity Units
ChlorophylAChelsea fluorimeterg/lCalibrated in Aceton
Missing or incorrect values are displayed as -999
Sea surface data collected by the RV Zeeleeuw from 2008-02-25 07:27:03 to 2008-02-25 14:47:41
Time Latitude Longitude Temperature Conductivity Salinity ChlorophylA
2008-02-25 07:28:07 51°13.664 2°55.955 13.7149 -999 -999 -1.691403
2008-02-25 07:29:08 51°13.665 2°55.956 13.7168 -999 -999 -1.657694
2008-02-25 07:30:08 51°13.665 2°55.956 13.7308 -999 -999 -1.691403
2008-02-25 07:31:08 51°13.665 2°55.956 13.714 -999 -999 -1.691403
2008-02-25 07:32:07 51°13.665 2°55.956 13.7249 -999 -999 -1.691403
2008-02-25 07:33:08 51°13.665 2°55.955 13.735 -999 -999 -1.691403
2008-02-25 07:34:08 51°13.665 2°55.955 13.7556 -999 -999 -1.657694
2008-02-25 07:35:08 51°13.665 2°55.955 13.802 -999 -999 -1.691403
2008-02-25 07:36:08 51°13.666 2°55.956 13.7788 -999 -999 -1.691403
2008-02-25 07:37:08 51°13.665 2°55.955 13.7673 -999 -999 -1.691403
2008-02-25 07:38:08 51°13.663 2°55.955 13.7715 -999 -999 -1.691403
2008-02-25 07:39:08 51°13.677 2°55.897 13.6618 -999 -999 -1.691403
2008-02-25 07:40:08 51°13.691 2°55.805 13.6529 -999 -999 -1.691403
2008-02-25 07:41:07 51°13.692 2°55.742 13.6757 -999 -999 -1.691403
2008-02-25 07:42:08 51°13.705 2°55.747 13.741 -999 -999 -1.657694
2008-02-25 07:43:07 51°13.765 2°55.709 13.6631 -999 -999 -1.691403
2008-02-25 07:44:07 51°13.862 2°55.616 13.5038 -999 -999 -1.691403
2008-02-25 07:45:07 51°13.976 2°55.53 13.5889 -999 -999 -1.657694
2008-02-25 07:46:07 51°14.076 2°55.458 13.6686 -999 -999 -1.691403
2008-02-25 07:47:07 51°14.176 2°55.375 13.685 -999 -999 -1.691403
2008-02-25 07:48:07 51°14.295 2°55.209 13.6481 -999 -999 -1.691403
2008-02-25 07:49:07 51°14.396 2°54.965 12.9438 -999 -999 -1.691403
2008-02-25 07:50:07 51°14.547 2°54.737 13.3263 -999 -999 -1.657694
2008-02-25 07:51:07 51°14.715 2°54.535 13.2389 -999 -999 -1.657694
2008-02-25 07:52:07 51°14.886 2°54.345 13.2981 -999 -999 -1.657694
2008-02-25 07:53:07 51°15.059 2°54.17 13.2711 -999 -999 -1.691403
2008-02-25 07:54:07 51°15.237 2°54.003 13.2929 -999 -999 -1.657694
2008-02-25 07:55:07 51°15.421 2°53.852 13.3047 -999 -999 -1.657694
2008-02-25 07:56:07 51°15.602 2°53.688 13.2318 -999 -999 -1.691403
2008-02-25 07:57:07 51°15.787 2°53.53 13.2915 -999 -999 -1.691403
2008-02-25 07:58:07 51°15.972 2°53.369 13.2462 -999 -999 -1.691403
2008-02-25 07:59:07 51°16.156 2°53.208 13.2182 -999 -999 -1.691403
2008-02-25 08:00:07 51°16.344 2°53.06 13.2462 -999 -999 -1.691403
2008-02-25 08:01:07 51°16.532 2°52.914 13.2527 -999 -999 -1.691403
2008-02-25 08:02:07 51°16.72 2°52.769 13.2784 -999 -999 -1.691403
2008-02-25 08:03:07 51°16.908 2°52.632 13.2487 -999 -999 -1.691403
2008-02-25 08:04:07 51°17.096 2°52.494 13.2098 -999 -999 -1.657694
2008-02-25 08:05:07 51°17.283 2°52.348 13.2729 -999 -999 -1.691403
2008-02-25 08:06:07 51°17.445 2°52.142 13.2821 -999 -999 -1.657694
2008-02-25 08:07:07 51°17.548 2°51.843 13.2083 -999 -999 -1.691403
2008-02-25 08:08:07 51°17.654 2°51.544 13.2795 -999 -999 -1.657694
2008-02-25 08:09:07 51°17.747 2°51.232 13.2468 -999 -999 -1.691403
2008-02-25 08:10:07 51°17.846 2°50.919 13.2743 -999 -999 -1.691403
2008-02-25 08:11:07 51°17.948 2°50.606 13.2883 -999 -999 -1.691403
2008-02-25 08:12:07 51°18.048 2°50.289 13.2925 -999 -999 -1.691403
2008-02-25 08:13:07 51°18.146 2°49.967 13.3139 -999 -999 -1.691403
2008-02-25 08:14:07 51°18.216 2°49.628 13.3665 -999 -999 -1.691403
2008-02-25 08:15:07 51°18.289 2°49.291 13.3517 -999 -999 -1.691403
2008-02-25 08:16:07 51°18.362 2°48.954 13.4105 -999 -999 -1.691403
2008-02-25 08:17:07 51°18.436 2°48.615 13.4243 -999 -999 -1.691403
2008-02-25 08:18:07 51°18.514 2°48.275 13.5002 -999 -999 -1.691403
2008-02-25 08:19:07 51°18.575 2°47.926 13.4661 -999 -999 -1.691403
2008-02-25 08:20:07 51°18.641 2°47.579 13.4387 -999 -999 -1.691403
2008-02-25 08:21:07 51°18.704 2°47.232 13.4973 -999 -999 -1.691403
2008-02-25 08:22:07 51°18.766 2°46.885 13.5046 -999 -999 -1.691403
2008-02-25 08:23:07 51°18.829 2°46.538 13.5438 -999 -999 -1.691403
2008-02-25 08:24:07 51°18.897 2°46.194 13.584 -999 -999 -1.691403
2008-02-25 08:25:07 51°18.972 2°45.853 13.5677 -999 -999 -1.691403
2008-02-25 08:26:07 51°19.048 2°45.51 13.5677 -999 -999 -1.691403
2008-02-25 08:27:07 51°19.127 2°45.166 13.629 -999 -999 -1.691403
2008-02-25 08:28:07 51°19.208 2°44.821 13.6055 -999 -999 -1.691403
2008-02-25 08:29:07 51°19.291 2°44.475 13.6376 -999 -999 -1.657694
2008-02-25 08:30:07 51°19.371 2°44.137 13.6614 -999 -999 -1.657694
2008-02-25 08:31:07 51°19.45 2°43.801 13.6531 -999 -999 -1.691403
2008-02-25 08:32:07 51°19.528 2°43.465 13.7187 -999 -999 -1.691403
2008-02-25 08:33:07 51°19.602 2°43.125 13.6875 -999 -999 -1.691403
2008-02-25 08:34:07 51°19.68 2°42.786 13.7397 -999 -999 -1.691403
2008-02-25 08:35:07 51°19.756 2°42.446 13.7838 -999 -999 -1.691403
2008-02-25 08:36:07 51°19.833 2°42.105 13.8038 -999 -999 -1.691403
2008-02-25 08:37:07 51°19.91 2°41.763 13.8449 -999 -999 -1.691403
2008-02-25 08:38:07 51°19.986 2°41.42 13.8577 -999 -999 -1.657694
2008-02-25 08:39:07 51°20.062 2°41.075 13.8693 -999 -999 -1.657694
2008-02-25 08:40:07 51°20.124 2°40.723 13.9457 -999 -999 -1.691403
2008-02-25 08:41:07 51°20.169 2°40.365 13.9176 -999 -999 -1.657694
2008-02-25 08:42:07 51°20.216 2°40.007 13.9116 -999 -999 -1.691403
2008-02-25 08:43:07 51°20.263 2°39.648 13.9102 -999 -999 -1.691403
2008-02-25 08:44:07 51°20.311 2°39.29 13.9182 -999 -999 -1.691403
2008-02-25 08:45:07 51°20.359 2°38.93 13.9024 -999 -999 -1.691403
2008-02-25 08:46:07 51°20.41 2°38.57 13.8845 -999 -999 -1.691403
2008-02-25 08:47:07 51°20.46 2°38.208 13.9168 -999 -999 -1.691403
2008-02-25 08:48:07 51°20.511 2°37.845 13.9659 -999 -999 -1.691403
2008-02-25 08:49:07 51°20.561 2°37.481 13.9088 -999 -999 -1.657694
2008-02-25 08:50:07 51°20.613 2°37.116 13.9437 -999 -999 -1.691403
2008-02-25 08:51:07 51°20.66 2°36.753 13.9186 -999 -999 -1.691403
2008-02-25 08:52:07 51°20.708 2°36.388 13.9664 -999 -999 -1.657694
2008-02-25 08:53:07 51°20.756 2°36.022 13.9599 -999 -999 -1.657694
2008-02-25 08:54:07 51°20.804 2°35.657 13.9732 -999 -999 -1.691403
2008-02-25 08:55:07 51°20.852 2°35.292 13.9879 -999 -999 -1.691403
2008-02-25 08:56:07 51°20.899 2°34.926 14.0048 -999 -999 -1.691403
2008-02-25 08:57:07 51°20.964 2°34.575 13.8289 -999 -999 -1.691403
2008-02-25 08:58:07 51°21.122 2°34.353 13.9607 -999 -999 -1.691403
2008-02-25 08:59:07 51°21.313 2°34.295 13.9919 -999 -999 -1.691403
2008-02-25 09:00:07 51°21.513 2°34.258 14.0231 -999 -999 -1.691403
2008-02-25 09:01:07 51°21.717 2°34.215 13.9734 -999 -999 -1.691403
2008-02-25 09:02:07 51°21.921 2°34.165 14.0335 -999 -999 -1.691403
2008-02-25 09:03:07 51°22.13 2°34.115 14.0376 -999 -999 -1.691403
2008-02-25 09:04:07 51°22.336 2°34.046 14.0677 -999 -999 -1.691403
2008-02-25 09:05:07 51°22.494 2°33.807 14.0741 -999 -999 -1.691403
2008-02-25 09:06:07 51°22.551 2°33.44 13.9944 -999 -999 -1.657694
2008-02-25 09:07:07 51°22.599 2°33.063 14.0311 -999 -999 -1.691403
2008-02-25 09:08:07 51°22.644 2°32.685 14.0479 -999 -999 -1.691403
2008-02-25 09:09:07 51°22.68 2°32.303 14.0641 -999 -999 -1.657694
2008-02-25 09:10:07 51°22.71 2°31.917 14.0695 -999 -999 -1.691403
2008-02-25 09:11:07 51°22.72 2°31.528 14.061 -999 -999 -1.691403
2008-02-25 09:12:07 51°22.713 2°31.135 14.0912 -999 -999 -1.691403
2008-02-25 09:13:07 51°22.707 2°30.741 14.1014 -999 -999 -1.657694
2008-02-25 09:14:07 51°22.702 2°30.351 14.1036 -999 -999 -1.691403
2008-02-25 09:15:07 51°22.695 2°29.962 14.134 -999 -999 -1.691403
2008-02-25 09:16:07 51°22.688 2°29.572 14.157 -999 -999 -1.691403
2008-02-25 09:17:07 51°22.681 2°29.181 14.1516 -999 -999 -1.691403
2008-02-25 09:18:07 51°22.674 2°28.792 14.2081 -999 -999 -1.657694
2008-02-25 09:19:07 51°22.657 2°28.399 14.1935 -999 -999 -1.657694
2008-02-25 09:20:07 51°22.638 2°28.004 14.2066 -999 -999 -1.691403
2008-02-25 09:21:07 51°22.62 2°27.609 14.2013 -999 -999 -1.657694
2008-02-25 09:22:07 51°22.6 2°27.215 14.237 -999 -999 -1.691403
2008-02-25 09:23:07 51°22.581 2°26.824 14.2296 -999 -999 -1.691403
2008-02-25 09:24:07 51°22.58 2°26.438 14.2512 -999 -999 -1.691403
2008-02-25 09:25:07 51°22.665 2°26.095 14.2619 -999 -999 -1.691403
2008-02-25 09:26:07 51°22.804 2°25.803 14.3014 -999 -999 -1.691403
2008-02-25 09:27:07 51°22.965 2°25.558 14.3008 -999 -999 -1.657694
2008-02-25 09:28:07 51°23.164 2°25.513 14.2964 -999 -999 -1.691403
2008-02-25 09:29:07 51°23.367 2°25.541 14.3755 -999 -999 -1.657694
2008-02-25 09:30:07 51°23.572 2°25.561 14.3679 -999 -999 -1.691403
2008-02-25 09:31:07 51°23.777 2°25.576 14.3878 -999 -999 -1.691403
2008-02-25 09:32:07 51°23.982 2°25.59 14.3721 -999 -999 -1.691403
2008-02-25 09:33:07 51°24.187 2°25.613 14.3925 -999 -999 -1.691403
2008-02-25 09:34:07 51°24.391 2°25.636 14.4214 -999 -999 -1.657694
2008-02-25 09:35:07 51°24.592 2°25.659 14.4245 -999 -999 -1.657694
2008-02-25 09:36:07 51°24.793 2°25.681 14.4359 -999 -999 -1.691403
2008-02-25 09:37:08 51°24.995 2°25.704 14.473 -999 -999 -1.691403
2008-02-25 09:38:08 51°25.193 2°25.723 14.4604 -999 -999 -1.657694
2008-02-25 09:39:08 51°25.389 2°25.74 14.4758 -999 -999 -1.691403
2008-02-25 09:40:08 51°25.584 2°25.758 14.4999 -999 -999 -1.691403
2008-02-25 09:41:08 51°25.779 2°25.775 14.5134 -999 -999 -1.691403
2008-02-25 09:42:08 51°25.973 2°25.791 14.5148 -999 -999 -1.691403
2008-02-25 09:43:08 51°26.166 2°25.809 14.4831 -999 -999 -1.691403
2008-02-25 09:44:08 51°26.361 2°25.827 14.5358 -999 -999 -1.691403
2008-02-25 09:45:08 51°26.556 2°25.848 14.5587 -999 -999 -1.691403
2008-02-25 09:46:08 51°26.752 2°25.87 14.5477 -999 -999 -1.691403
2008-02-25 09:47:08 51°26.949 2°25.892 14.5759 -999 -999 -1.691403
2008-02-25 09:48:08 51°27.147 2°25.913 14.6081 -999 -999 -1.691403
2008-02-25 09:49:08 51°27.344 2°25.936 14.6277 -999 -999 -1.657694
2008-02-25 09:50:08 51°27.543 2°25.96 14.6211 -999 -999 -1.691403
2008-02-25 09:51:08 51°27.741 2°25.985 14.6426 -999 -999 -1.691403
2008-02-25 09:52:07 51°27.935 2°26.011 14.6578 -999 -999 -1.691403
2008-02-25 09:53:07 51°28.133 2°26.01 14.6086 -999 -999 -1.691403
2008-02-25 09:54:07 51°28.333 2°25.976 14.6505 -999 -999 -1.691403
2008-02-25 09:55:08 51°28.529 2°25.883 14.6635 -999 -999 -1.691403
2008-02-25 09:56:08 51°28.716 2°25.744 14.6848 -999 -999 -1.657694
2008-02-25 09:57:08 51°28.905 2°25.611 14.7137 -999 -999 -1.691403
2008-02-25 09:58:08 51°29.091 2°25.48 14.7095 -999 -999 -1.657694
2008-02-25 09:59:08 51°29.279 2°25.355 14.7533 -999 -999 -1.691403
2008-02-25 10:00:07 51°29.463 2°25.228 14.7096 -999 -999 -1.691403
2008-02-25 10:01:07 51°29.65 2°25.102 14.7281 -999 -999 -1.657694
2008-02-25 10:02:07 51°29.841 2°24.98 14.7935 -999 -999 -1.657694
2008-02-25 10:03:07 51°30.028 2°24.844 14.802 -999 -999 -1.657694
2008-02-25 10:04:07 51°30.218 2°24.768 14.7291 -999 -999 -1.691403
2008-02-25 10:05:07 51°30.391 2°24.846 14.7954 -999 -999 -1.691403
2008-02-25 10:06:08 51°30.561 2°24.966 14.8284 -999 -999 -1.691403
2008-02-25 10:07:07 51°30.722 2°25.086 14.8587 -999 -999 -1.657694
2008-02-25 10:08:07 51°30.885 2°25.212 14.858 -999 -999 -1.691403
2008-02-25 10:09:08 51°31.049 2°25.345 14.9018 -999 -999 -1.691403
2008-02-25 10:10:08 51°31.211 2°25.482 14.917 -999 -999 -1.657694
2008-02-25 10:11:08 51°31.371 2°25.62 14.9064 -999 -999 -1.657694
2008-02-25 10:12:08 51°31.527 2°25.766 14.93 -999 -999 -1.691403
2008-02-25 10:13:07 51°31.681 2°25.908 14.9361 -999 -999 -1.691403
2008-02-25 10:14:07 51°31.839 2°26.053 14.9515 -999 -999 -1.691403
2008-02-25 10:15:08 51°32 2°26.199 14.9546 -999 -999 -1.657694
2008-02-25 10:16:08 51°32.158 2°26.344 14.9974 -999 -999 -1.657694
2008-02-25 10:17:08 51°32.318 2°26.487 15.0025 -999 -999 -1.657694
2008-02-25 10:18:08 51°32.478 2°26.631 15.0279 -999 -999 -1.691403
2008-02-25 10:19:08 51°32.638 2°26.776 15.0251 -999 -999 -1.691403
2008-02-25 10:20:08 51°32.794 2°26.931 15.058 -999 -999 -1.691403
2008-02-25 10:21:08 51°32.954 2°27.082 15.0648 -999 -999 -1.657694
2008-02-25 10:22:07 51°33.111 2°27.23 15.0857 -999 -999 -1.691403
2008-02-25 10:23:07 51°33.27 2°27.378 15.0912 -999 -999 -1.657694
2008-02-25 10:24:07 51°33.429 2°27.527 15.0927 -999 -999 -1.657694
2008-02-25 10:25:07 51°33.588 2°27.676 15.0875 -999 -999 -1.657694
2008-02-25 10:26:07 51°33.745 2°27.825 15.1121 -999 -999 -1.657694
2008-02-25 10:27:08 51°33.907 2°27.976 15.1446 -999 -999 -1.691403
2008-02-25 10:28:07 51°34.064 2°28.122 15.118 -999 -999 -1.657694
2008-02-25 10:29:07 51°34.224 2°28.273 15.1701 -999 -999 -1.691403
2008-02-25 10:30:08 51°34.386 2°28.426 15.1676 -999 -999 -1.691403
2008-02-25 10:31:08 51°34.544 2°28.577 15.2022 -999 -999 -1.657694
2008-02-25 10:32:07 51°34.701 2°28.725 15.1943 -999 -999 -1.691403
2008-02-25 10:33:08 51°34.861 2°28.878 15.221 -999 -999 -1.657694
2008-02-25 10:34:07 51°35.017 2°29.026 15.2167 -999 -999 -1.657694
2008-02-25 10:35:08 51°35.176 2°29.179 15.2484 -999 -999 -1.691403
2008-02-25 10:36:08 51°35.329 2°29.338 15.2477 -999 -999 -1.657694
2008-02-25 10:37:08 51°35.481 2°29.498 15.2812 -999 -999 -1.691403
2008-02-25 10:38:07 51°35.632 2°29.655 15.3242 -999 -999 -1.691403
2008-02-25 10:39:07 51°35.783 2°29.814 15.3202 -999 -999 -1.691403
2008-02-25 10:40:07 51°35.936 2°29.969 15.2936 -999 -999 -1.691403
2008-02-25 10:41:07 51°36.09 2°30.124 15.3376 -999 -999 -1.691403
2008-02-25 10:42:08 51°36.245 2°30.283 15.3584 -999 -999 -1.691403
2008-02-25 10:43:07 51°36.394 2°30.438 15.3635 -999 -999 -1.691403
2008-02-25 10:44:07 51°36.546 2°30.594 15.4019 -999 -999 -1.691403
2008-02-25 10:45:07 51°36.697 2°30.752 15.402 -999 -999 -1.691403
2008-02-25 10:46:07 51°36.849 2°30.91 15.3601 -999 -999 -1.657694
2008-02-25 10:47:08 51°37.002 2°31.07 15.4088 -999 -999 -1.691403
2008-02-25 10:48:07 51°37.151 2°31.227 15.4351 -999 -999 -1.691403
2008-02-25 10:49:08 51°37.305 2°31.386 15.4085 -999 -999 -1.691403
2008-02-25 10:50:07 51°37.453 2°31.54 15.4348 -999 -999 -1.691403
2008-02-25 10:51:08 51°37.608 2°31.7 15.4223 -999 -999 -1.691403
2008-02-25 10:52:07 51°37.758 2°31.856 15.4961 -999 -999 -1.657694
2008-02-25 10:53:08 51°37.912 2°32.015 15.4789 -999 -999 -1.657694
2008-02-25 10:54:08 51°38.065 2°32.171 15.4713 -999 -999 -1.691403
2008-02-25 10:55:08 51°38.218 2°32.328 15.4957 -999 -999 -1.657694
2008-02-25 10:56:08 51°38.372 2°32.489 15.5039 -999 -999 -1.691403
2008-02-25 10:57:08 51°38.526 2°32.648 15.5452 -999 -999 -1.691403
2008-02-25 10:58:08 51°38.681 2°32.807 15.5554 -999 -999 -1.691403
2008-02-25 10:59:08 51°38.837 2°32.968 15.5681 -999 -999 -1.691403
2008-02-25 11:00:08 51°38.992 2°33.129 15.5961 -999 -999 -1.691403
2008-02-25 11:01:08 51°39.146 2°33.29 15.6086 -999 -999 -1.691403
2008-02-25 11:02:08 51°39.3 2°33.454 15.5981 -999 -999 -1.657694
2008-02-25 11:03:08 51°39.455 2°33.618 15.5857 -999 -999 -1.657694
2008-02-25 11:04:08 51°39.612 2°33.785 15.6374 -999 -999 -1.691403
2008-02-25 11:05:08 51°39.77 2°33.95 15.6496 -999 -999 -1.691403
2008-02-25 11:06:08 51°39.928 2°34.116 15.6647 -999 -999 -1.691403
2008-02-25 11:07:08 51°40.086 2°34.279 15.6452 -999 -999 -1.691403
2008-02-25 11:08:07 51°40.242 2°34.443 15.6917 -999 -999 -1.691403
2008-02-25 11:09:07 51°40.399 2°34.608 15.6758 -999 -999 -1.691403
2008-02-25 11:10:07 51°40.556 2°34.773 15.7057 -999 -999 -1.691403
2008-02-25 11:11:07 51°40.714 2°34.937 15.7281 -999 -999 -1.691403
2008-02-25 11:12:08 51°40.873 2°35.102 15.7229 -999 -999 -1.691403
2008-02-25 11:13:08 51°41.031 2°35.265 15.7226 -999 -999 -1.691403
2008-02-25 11:14:08 51°41.189 2°35.426 15.7441 -999 -999 -1.691403
2008-02-25 11:15:08 51°41.343 2°35.596 15.7331 -999 -999 -1.691403
2008-02-25 11:16:08 51°41.419 2°35.862 15.6888 -999 -999 -1.691403
2008-02-25 11:17:07 51°41.319 2°36.132 15.792 -999 -999 -1.657694
2008-02-25 11:18:08 51°41.21 2°36.415 15.8248 -999 -999 -1.691403
2008-02-25 11:19:07 51°41.106 2°36.693 15.8305 -999 -999 -1.691403
2008-02-25 11:20:08 51°41 2°36.991 15.8068 -999 -999 -1.691403
2008-02-25 11:21:08 51°40.894 2°37.283 15.8479 -999 -999 -1.657694
2008-02-25 11:22:08 51°40.787 2°37.576 15.8341 -999 -999 -1.691403
2008-02-25 11:23:08 51°40.68 2°37.869 15.8446 -999 -999 -1.691403
2008-02-25 11:24:08 51°40.574 2°38.162 15.8737 -999 -999 -1.691403
2008-02-25 11:25:08 51°40.464 2°38.453 15.9176 -999 -999 -1.691403
2008-02-25 11:26:08 51°40.358 2°38.743 15.9291 -999 -999 -1.691403
2008-02-25 11:27:07 51°40.256 2°39.028 15.9274 -999 -999 -1.691403
2008-02-25 11:28:07 51°40.15 2°39.319 15.9498 -999 -999 -1.657694
2008-02-25 11:29:08 51°40.044 2°39.613 15.9698 -999 -999 -1.691403
2008-02-25 11:30:08 51°39.94 2°39.902 15.9782 -999 -999 -1.657694
2008-02-25 11:31:08 51°39.836 2°40.191 15.979 -999 -999 -1.657694
2008-02-25 11:32:08 51°39.734 2°40.481 15.9927 -999 -999 -1.691403
2008-02-25 11:33:08 51°39.629 2°40.77 15.9758 -999 -999 -1.657694
2008-02-25 11:34:08 51°39.528 2°41.06 15.9971 -999 -999 -1.691403
2008-02-25 11:35:08 51°39.424 2°41.342 16.0325 -999 -999 -1.691403
2008-02-25 11:36:08 51°39.324 2°41.626 16.0392 -999 -999 -1.657694
2008-02-25 11:37:08 51°39.213 2°41.906 15.983 -999 -999 -1.657694
2008-02-25 11:38:07 51°39.031 2°42.043 16.0992 -999 -999 -1.691403
2008-02-25 11:39:07 51°38.814 2°42.119 16.0668 -999 -999 -1.691403
2008-02-25 11:40:07 51°38.592 2°42.177 16.0904 -999 -999 -1.691403
2008-02-25 11:41:07 51°38.367 2°42.232 16.1365 -999 -999 -1.691403
2008-02-25 11:42:07 51°38.139 2°42.271 16.1544 -999 -999 -1.691403
2008-02-25 11:43:07 51°37.908 2°42.234 16.1617 -999 -999 -1.657694
2008-02-25 11:44:07 51°37.677 2°42.167 16.1129 -999 -999 -1.691403
2008-02-25 11:45:07 51°37.455 2°42.045 16.1795 -999 -999 -1.657694
2008-02-25 11:46:07 51°37.287 2°41.795 16.1228 -999 -999 -1.691403
2008-02-25 11:47:07 51°37.279 2°41.435 16.235 -999 -999 -1.657694
2008-02-25 11:48:07 51°37.303 2°41.061 16.2565 -999 -999 -1.691403
2008-02-25 11:49:07 51°37.324 2°40.688 16.2204 -999 -999 -1.691403
2008-02-25 11:50:07 51°37.345 2°40.316 16.2447 -999 -999 -1.691403
2008-02-25 11:51:07 51°37.363 2°39.948 16.2728 -999 -999 -1.657694
2008-02-25 11:52:07 51°37.379 2°39.581 16.271 -999 -999 -1.691403
2008-02-25 11:53:07 51°37.392 2°39.214 16.2773 -999 -999 -1.691403
2008-02-25 11:54:07 51°37.404 2°38.848 16.2831 -999 -999 -1.691403
2008-02-25 11:55:07 51°37.417 2°38.483 16.295 -999 -999 -1.657694
2008-02-25 11:56:07 51°37.427 2°38.115 16.2907 -999 -999 -1.657694
2008-02-25 11:57:07 51°37.438 2°37.75 16.2584 -999 -999 -1.657694
2008-02-25 11:58:07 51°37.45 2°37.385 16.3206 -999 -999 -1.657694
2008-02-25 11:59:07 51°37.46 2°37.02 16.3319 -999 -999 -1.691403
2008-02-25 12:00:07 51°37.471 2°36.655 16.3419 -999 -999 -1.691403
2008-02-25 12:01:07 51°37.481 2°36.29 16.3242 -999 -999 -1.691403
2008-02-25 12:02:07 51°37.489 2°35.924 16.347 -999 -999 -1.657694
2008-02-25 12:03:07 51°37.497 2°35.556 16.3792 -999 -999 -1.691403
2008-02-25 12:04:07 51°37.506 2°35.187 16.3586 -999 -999 -1.657694
2008-02-25 12:05:07 51°37.517 2°34.819 16.3948 -999 -999 -1.657694
2008-02-25 12:06:07 51°37.531 2°34.447 16.3926 -999 -999 -1.657694
2008-02-25 12:07:07 51°37.503 2°34.094 16.4597 -999 -999 -1.657694
2008-02-25 12:08:07 51°37.369 2°33.84 16.4582 -999 -999 -1.691403
2008-02-25 12:09:07 51°37.177 2°33.702 16.4496 -999 -999 -1.657694
2008-02-25 12:10:07 51°36.976 2°33.568 16.4117 -999 -999 -1.691403
2008-02-25 12:11:07 51°36.771 2°33.443 16.4671 -999 -999 -1.691403
2008-02-25 12:12:07 51°36.566 2°33.327 16.4791 -999 -999 -1.691403
2008-02-25 12:13:07 51°36.36 2°33.21 16.4942 -999 -999 -1.657694
2008-02-25 12:14:07 51°36.154 2°33.103 16.4709 -999 -999 -1.691403
2008-02-25 12:15:07 51°35.946 2°32.995 16.5128 -999 -999 -1.691403
2008-02-25 12:16:07 51°35.739 2°32.888 16.5207 -999 -999 -1.691403
2008-02-25 12:17:07 51°35.532 2°32.781 16.5509 -999 -999 -1.657694
2008-02-25 12:18:07 51°35.325 2°32.675 16.5512 -999 -999 -1.657694
2008-02-25 12:19:07 51°35.117 2°32.579 16.5698 -999 -999 -1.691403
2008-02-25 12:20:07 51°34.909 2°32.485 16.5592 -999 -999 -1.657694
2008-02-25 12:21:07 51°34.702 2°32.39 16.5913 -999 -999 -1.691403
2008-02-25 12:22:07 51°34.494 2°32.297 16.5969 -999 -999 -1.691403
2008-02-25 12:23:07 51°34.288 2°32.205 16.6388 -999 -999 -1.657694
2008-02-25 12:24:07 51°34.081 2°32.114 16.6509 -999 -999 -1.657694
2008-02-25 12:25:08 51°33.87 2°32.018 16.6298 -999 -999 -1.657694
2008-02-25 12:26:07 51°33.665 2°31.926 16.6248 -999 -999 -1.657694
2008-02-25 12:27:07 51°33.457 2°31.836 16.6075 -999 -999 -1.691403
2008-02-25 12:28:07 51°33.249 2°31.748 16.6703 -999 -999 -1.657694
2008-02-25 12:29:07 51°33.041 2°31.66 16.6779 -999 -999 -1.691403
2008-02-25 12:30:07 51°32.834 2°31.574 16.6889 -999 -999 -1.691403
2008-02-25 12:31:07 51°32.625 2°31.506 16.7661 -999 -999 -1.691403
2008-02-25 12:32:07 51°32.415 2°31.538 16.6705 -999 -999 -1.691403
2008-02-25 12:33:07 51°32.21 2°31.627 16.7022 -999 -999 -1.691403
2008-02-25 12:34:07 51°32.004 2°31.713 16.6796 -999 -999 -1.691403
2008-02-25 12:35:07 51°31.798 2°31.801 16.6898 -999 -999 -1.691403
2008-02-25 12:36:07 51°31.597 2°31.901 16.7106 -999 -999 -1.691403
2008-02-25 12:37:07 51°31.398 2°32.007 16.7296 -999 -999 -1.691403
2008-02-25 12:38:07 51°31.203 2°32.122 16.7683 -999 -999 -1.691403
2008-02-25 12:39:07 51°31.008 2°32.244 16.7217 -999 -999 -1.657694
2008-02-25 12:40:07 51°30.818 2°32.376 16.7136 -999 -999 -1.691403
2008-02-25 12:41:07 51°30.634 2°32.524 16.7297 -999 -999 -1.691403
2008-02-25 12:42:07 51°30.452 2°32.68 16.7189 -999 -999 -1.691403
2008-02-25 12:43:07 51°30.274 2°32.847 16.7617 -999 -999 -1.657694
2008-02-25 12:44:07 51°30.114 2°33.05 16.8047 -999 -999 -1.657694
2008-02-25 12:45:07 51°29.992 2°33.307 16.8462 -999 -999 -1.691403
2008-02-25 12:46:08 51°29.952 2°33.617 16.8205 -999 -999 -1.691403
2008-02-25 12:47:08 51°29.942 2°33.933 16.7869 -999 -999 -1.691403
2008-02-25 12:48:08 51°29.926 2°34.249 16.7457 -999 -999 -1.657694
2008-02-25 12:49:07 51°29.911 2°34.559 16.7885 -999 -999 -1.691403
2008-02-25 12:50:07 51°29.897 2°34.874 16.7973 -999 -999 -1.691403
2008-02-25 12:51:07 51°29.887 2°35.188 16.8256 -999 -999 -1.691403
2008-02-25 12:52:07 51°29.877 2°35.503 16.8307 -999 -999 -1.691403
2008-02-25 12:53:07 51°29.868 2°35.82 16.8205 -999 -999 -1.657694
2008-02-25 12:54:07 51°29.86 2°36.14 16.8503 -999 -999 -1.691403
2008-02-25 12:55:07 51°29.853 2°36.462 16.8525 -999 -999 -1.657694
2008-02-25 12:56:07 51°29.844 2°36.786 16.8344 -999 -999 -1.691403
2008-02-25 12:57:07 51°29.836 2°37.109 16.8747 -999 -999 -1.657694
2008-02-25 12:58:07 51°29.821 2°37.431 16.8228 -999 -999 -1.657694
2008-02-25 12:59:07 51°29.724 2°37.71 16.8389 -999 -999 -1.657694
2008-02-25 13:00:07 51°29.532 2°37.838 16.8737 -999 -999 -1.657694
2008-02-25 13:01:07 51°29.328 2°37.935 16.9286 -999 -999 -1.691403
2008-02-25 13:02:07 51°29.126 2°38.034 16.8871 -999 -999 -1.657694
2008-02-25 13:03:07 51°28.923 2°38.133 16.9456 -999 -999 -1.657694
2008-02-25 13:04:07 51°28.722 2°38.234 16.955 -999 -999 -1.691403
2008-02-25 13:05:07 51°28.522 2°38.336 16.9785 -999 -999 -1.691403
2008-02-25 13:06:07 51°28.324 2°38.442 16.9871 -999 -999 -1.657694
2008-02-25 13:07:07 51°28.127 2°38.549 16.9622 -999 -999 -1.691403
2008-02-25 13:08:07 51°27.932 2°38.658 16.9933 -999 -999 -1.657694
2008-02-25 13:09:07 51°27.737 2°38.77 16.9899 -999 -999 -1.691403
2008-02-25 13:10:07 51°27.542 2°38.89 16.9973 -999 -999 -1.657694
2008-02-25 13:11:07 51°27.354 2°39.034 16.9993 -999 -999 -1.657694
2008-02-25 13:12:07 51°27.164 2°39.175 16.9953 -999 -999 -1.657694
2008-02-25 13:13:07 51°26.976 2°39.318 16.9975 -999 -999 -1.691403
2008-02-25 13:14:07 51°26.789 2°39.463 17.0249 -999 -999 -1.657694
2008-02-25 13:15:07 51°26.604 2°39.606 17.0276 -999 -999 -1.657694
2008-02-25 13:16:07 51°26.42 2°39.755 17.0497 -999 -999 -1.657694
2008-02-25 13:17:07 51°26.237 2°39.902 17.0549 -999 -999 -1.691403
2008-02-25 13:18:07 51°26.045 2°39.998 17.0504 -999 -999 -1.657694
2008-02-25 13:19:07 51°25.849 2°40.067 17.0688 -999 -999 -1.657694
2008-02-25 13:20:07 51°25.662 2°40.175 17.0417 -999 -999 -1.657694
2008-02-25 13:21:07 51°25.475 2°40.285 17.0797 -999 -999 -1.691403
2008-02-25 13:22:07 51°25.287 2°40.401 17.0942 -999 -999 -1.691403
2008-02-25 13:23:07 51°25.1 2°40.522 17.0735 -999 -999 -1.657694
2008-02-25 13:24:07 51°24.912 2°40.644 17.1221 -999 -999 -1.657694
2008-02-25 13:25:07 51°24.726 2°40.77 17.1188 -999 -999 -1.657694
2008-02-25 13:26:07 51°24.538 2°40.894 17.1023 -999 -999 -1.657694
2008-02-25 13:27:07 51°24.351 2°41.019 17.118 -999 -999 -1.657694
2008-02-25 13:28:07 51°24.158 2°41.112 17.126 -999 -999 -1.657694
2008-02-25 13:29:07 51°23.96 2°41.174 17.1483 -999 -999 -1.657694
2008-02-25 13:30:07 51°23.762 2°41.225 17.1298 -999 -999 -1.691403
2008-02-25 13:31:07 51°23.564 2°41.269 17.1785 -999 -999 -1.657694
2008-02-25 13:32:07 51°23.367 2°41.304 17.2018 -999 -999 -1.657694
2008-02-25 13:33:07 51°23.171 2°41.343 17.1903 -999 -999 -1.657694
2008-02-25 13:34:07 51°22.977 2°41.382 17.199 -999 -999 -1.657694
2008-02-25 13:35:07 51°22.782 2°41.419 17.1484 -999 -999 -1.691403
2008-02-25 13:36:07 51°22.587 2°41.456 17.2118 -999 -999 -1.691403
2008-02-25 13:37:07 51°22.393 2°41.494 17.1987 -999 -999 -1.691403
2008-02-25 13:38:07 51°22.199 2°41.531 17.2432 -999 -999 -1.657694
2008-02-25 13:39:07 51°22.005 2°41.569 17.1945 -999 -999 -1.691403
2008-02-25 13:40:07 51°21.811 2°41.606 17.272 -999 -999 -1.657694
2008-02-25 13:41:07 51°21.617 2°41.646 17.2682 -999 -999 -1.657694
2008-02-25 13:42:07 51°21.423 2°41.688 17.2657 -999 -999 -1.691403
2008-02-25 13:43:07 51°21.229 2°41.731 17.2337 -999 -999 -1.691403
2008-02-25 13:44:07 51°21.036 2°41.773 17.2139 -999 -999 -1.691403
2008-02-25 13:45:07 51°20.842 2°41.813 17.2888 -999 -999 -1.691403
2008-02-25 13:46:08 51°20.652 2°41.913 17.2537 -999 -999 -1.691403
2008-02-25 13:47:08 51°20.5 2°42.129 17.2589 -999 -999 -1.657694
2008-02-25 13:48:08 51°20.385 2°42.414 17.2827 -999 -999 -1.657694
2008-02-25 13:49:08 51°20.295 2°42.713 17.227 -999 -999 -1.657694
2008-02-25 13:50:07 51°20.212 2°43.01 17.2382 -999 -999 -1.691403
2008-02-25 13:51:07 51°20.127 2°43.31 17.2919 -999 -999 -1.691403
2008-02-25 13:52:07 51°20.04 2°43.609 17.2672 -999 -999 -1.691403
2008-02-25 13:53:07 51°19.952 2°43.907 17.307 -999 -999 -1.657694
2008-02-25 13:54:07 51°19.865 2°44.206 17.2279 -999 -999 -1.657694
2008-02-25 13:55:07 51°19.779 2°44.506 17.2767 -999 -999 -1.691403
2008-02-25 13:56:07 51°19.689 2°44.812 17.2396 -999 -999 -1.657694
2008-02-25 13:57:07 51°19.593 2°45.124 17.3023 -999 -999 -1.657694
2008-02-25 13:58:07 51°19.493 2°45.442 17.3115 -999 -999 -1.657694
2008-02-25 13:59:07 51°19.389 2°45.765 17.2886 -999 -999 -1.657694
2008-02-25 14:00:07 51°19.288 2°46.088 17.2831 -999 -999 -1.657694
2008-02-25 14:01:07 51°19.187 2°46.404 17.3555 -999 -999 -1.691403
2008-02-25 14:02:07 51°19.088 2°46.722 17.2959 -999 -999 -1.657694
2008-02-25 14:03:07 51°18.987 2°47.034 17.3074 -999 -999 -1.691403
2008-02-25 14:04:07 51°18.888 2°47.347 17.2844 -999 -999 -1.657694
2008-02-25 14:05:07 51°18.789 2°47.66 17.3424 -999 -999 -1.657694
2008-02-25 14:06:07 51°18.69 2°47.972 17.3283 -999 -999 -1.691403
2008-02-25 14:07:07 51°18.592 2°48.287 17.3149 -999 -999 -1.657694
2008-02-25 14:08:07 51°18.495 2°48.608 17.3519 -999 -999 -1.657694
2008-02-25 14:09:07 51°18.407 2°48.936 17.3315 -999 -999 -1.691403
2008-02-25 14:10:07 51°18.323 2°49.272 17.2853 -999 -999 -1.657694
2008-02-25 14:11:07 51°18.24 2°49.609 17.3192 -999 -999 -1.691403
2008-02-25 14:12:07 51°18.157 2°49.939 17.3591 -999 -999 -1.691403
2008-02-25 14:13:07 51°18.076 2°50.271 17.3723 -999 -999 -1.691403
2008-02-25 14:14:07 51°17.996 2°50.605 17.3802 -999 -999 -1.657694
2008-02-25 14:15:07 51°17.913 2°50.936 17.3576 -999 -999 -1.657694
2008-02-25 14:16:07 51°17.819 2°51.26 17.3654 -999 -999 -1.691403
2008-02-25 14:17:07 51°17.711 2°51.568 17.3315 -999 -999 -1.691403
2008-02-25 14:18:07 51°17.576 2°51.835 17.4023 -999 -999 -1.657694
2008-02-25 14:19:07 51°17.426 2°52.075 17.3651 -999 -999 -1.691403
2008-02-25 14:20:07 51°17.249 2°52.236 17.4009 -999 -999 -1.657694
2008-02-25 14:21:07 51°17.064 2°52.369 17.3783 -999 -999 -1.657694
2008-02-25 14:22:07 51°16.882 2°52.504 17.4173 -999 -999 -1.657694
2008-02-25 14:23:07 51°16.7 2°52.64 17.4246 -999 -999 -1.657694
2008-02-25 14:24:07 51°16.517 2°52.784 17.4336 -999 -999 -1.657694
2008-02-25 14:25:08 51°16.333 2°52.925 17.4107 -999 -999 -1.657694
2008-02-25 14:26:08 51°16.151 2°53.066 17.4577 -999 -999 -1.657694
2008-02-25 14:27:08 51°15.968 2°53.211 17.4654 -999 -999 -1.657694
2008-02-25 14:28:08 51°15.787 2°53.358 17.4669 -999 -999 -1.691403
2008-02-25 14:29:08 51°15.606 2°53.503 17.4732 -999 -999 -1.657694
2008-02-25 14:30:08 51°15.425 2°53.646 17.4749 -999 -999 -1.657694
2008-02-25 14:31:08 51°15.248 2°53.795 17.4818 -999 -999 -1.657694
2008-02-25 14:32:08 51°15.073 2°53.955 17.5139 -999 -999 -1.691403
2008-02-25 14:33:08 51°14.901 2°54.136 17.4466 -999 -999 -1.657694
2008-02-25 14:34:08 51°14.737 2°54.332 17.4647 -999 -999 -1.657694
2008-02-25 14:35:08 51°14.582 2°54.548 17.5005 -999 -999 -1.657694
2008-02-25 14:36:08 51°14.453 2°54.818 17.5354 -999 -999 -1.657694
2008-02-25 14:37:08 51°14.337 2°55.106 17.4931 -999 -999 -1.657694
2008-02-25 14:38:08 51°14.198 2°55.339 17.4229 -999 -999 -1.691403
2008-02-25 14:39:08 51°14.092 2°55.438 17.52 -999 -999 -1.691403
2008-02-25 14:40:08 51°14.021 2°55.496 17.5496 -999 -999 -1.657694
2008-02-25 14:41:08 51°13.953 2°55.549 17.5372 -999 -999 -1.657694
2008-02-25 14:42:08 51°13.88 2°55.599 17.5656 -999 -999 -1.657694
2008-02-25 14:43:08 51°13.806 2°55.653 17.5672 -999 -999 -1.657694
2008-02-25 14:44:08 51°13.742 2°55.731 17.5754 -999 -999 -1.657694
2008-02-25 14:45:09 51°13.692 2°55.828 17.618 -999 -999 -1.691403
2008-02-25 14:46:09 51°13.672 2°55.916 17.5764 -999 -999 -1.691403
2008-02-25 14:47:08 51°13.668 2°55.946 17.6299 -999 -999 -1.657694